Weather History for PAMY - April, 2013

Change the Weather History Date:

Monday, April 22, 2013

  Actual Average Record
Temperature  
Mean Temperature 16 °F -  
Max Temperature 26 °F 31 °F 39 °F (2014)
Min Temperature 6 °F 24 °F 6 °F (2013)
Degree Days  
Heating Degree Days 49    
Moisture  
Dew Point 13 °F    
Average Humidity 88    
Maximum Humidity 100    
Minimum Humidity 73    
Precipitation  
Precipitation 0.00 in - - ()
Sea Level Pressure  
Sea Level Pressure 30.49 in    
Wind  
Wind Speed 4 mph (WNW)    
Max Wind Speed 9 mph    
Max Gust Speed -    
Visibility 6 miles    
Events      
Averages and records for this station are not official NWS values.
T = Trace of Precipitation, MM = Missing Value Source: NWS Daily Summary

Daily Weather History Graph

Daily Weather History Graph

Search for Another Location

Airport or City:

Trip Planner

Search our weather history database for the weather conditions in past years. The results will help you decide how hot, cold, wet, or windy it might be!

Date:

Astronomy

Apr. 22, 2013 Rise Set
Actual Time 7:25 AM AKDT 10:43 PM AKDT
Civil Twilight 6:35 AM AKDT 11:33 PM AKDT
Nautical Twilight 5:24 AM AKDT 12:45 AM AKDT
Astronomical Twilight 3:35 AM AKDT 2:30 AM AKDT
Moon 7:05 PM AKDT (4/22) 6:16 AM AKDT (4/22)
Length of Visible Light 16h 58m
Length of Day
15h 18m
Waxing Gibbous, 89% of the Moon is Illuminated
Apr 22
Waxing Gibbous
Apr 25
Full
May 2
Last Quarter
May 9
New
May 17
First Quarter

Hourly Weather History & Observations

Time (AKDT) Temp. Windchill Dew Point Humidity Pressure Visibility Wind Dir Wind Speed Gust Speed Precip Events Conditions
12:16 AM 15.8 °F 6.1 °F 12.2 °F 86% 30.52 in 10.0 mi West 6.9 mph - N/A   Clear
12:36 AM 12.2 °F 1.7 °F 12.2 °F 100% 30.52 in 10.0 mi West 6.9 mph - N/A   Clear
12:56 AM 10.4 °F -1.5 °F 10.4 °F 100% 30.52 in 10.0 mi West 8.1 mph - N/A   Clear
1:16 AM 10.4 °F -1.5 °F 8.6 °F 92% 30.52 in 9.0 mi West 8.1 mph - N/A   Clear
1:36 AM 12.2 °F 0.7 °F 10.4 °F 92% 30.52 in 4.0 mi West 8.1 mph - N/A   Clear
1:56 AM 14.0 °F 2.9 °F 8.6 °F 79% 30.52 in 10.0 mi West 8.1 mph - N/A   Clear
2:16 AM 12.2 °F 0.7 °F 10.4 °F 92% 30.52 in 8.0 mi West 8.1 mph - N/A   Clear
2:36 AM 8.6 °F -2.6 °F 8.6 °F 100% 30.52 in 6.0 mi West 6.9 mph - N/A   Clear
2:56 AM 12.2 °F 1.7 °F 10.4 °F 92% 30.52 in 0.5 mi WSW 6.9 mph - N/A   Mostly Cloudy
3:16 AM 12.2 °F 2.9 °F 8.6 °F 85% 30.52 in 0.2 mi West 5.8 mph - N/A   Overcast
3:36 AM 6.8 °F -3.5 °F 3.2 °F 85% 30.52 in 0.2 mi West 5.8 mph - N/A   Overcast
3:56 AM 8.6 °F -1.3 °F 6.8 °F 92% 30.52 in 0.2 mi West 5.8 mph - N/A   Overcast
4:16 AM 12.2 °F 2.9 °F 8.6 °F 85% 30.51 in 0.2 mi West 5.8 mph - N/A   Overcast
4:36 AM 8.6 °F -1.3 °F 3.2 °F 79% 30.51 in 0.2 mi WNW 5.8 mph - N/A   Overcast
4:56 AM 10.4 °F 4.0 °F 6.8 °F 85% 30.50 in 0.2 mi West 3.5 mph - N/A   Overcast
5:16 AM 8.6 °F - 3.2 °F 79% 30.50 in 0.2 mi Calm Calm - N/A   Overcast
5:36 AM 8.6 °F - 6.8 °F 92% 30.50 in 0.2 mi Calm Calm - N/A   Overcast
5:56 AM 8.6 °F - 5.0 °F 85% 30.49 in 0.2 mi Calm Calm - N/A   Overcast
6:16 AM 8.6 °F 2.0 °F 1.4 °F 73% 30.50 in 0.2 mi SSW 3.5 mph - N/A   Overcast
6:36 AM 8.6 °F - 6.8 °F 92% 30.50 in 0.2 mi Calm Calm - N/A   Overcast
6:56 AM 8.6 °F - 5.0 °F 85% 30.50 in 0.2 mi Calm Calm - N/A   Overcast
7:16 AM 10.4 °F - 8.6 °F 92% 30.50 in 0.2 mi Calm Calm - N/A   Overcast
7:36 AM 8.6 °F -1.3 °F 1.4 °F 73% 30.50 in 0.2 mi West 5.8 mph - N/A   Overcast
7:56 AM 8.6 °F 2.0 °F 5.0 °F 85% 30.50 in 0.2 mi West 3.5 mph - N/A   Overcast
8:16 AM 6.8 °F -2.0 °F 3.2 °F 85% 30.50 in 0.2 mi West 4.6 mph - N/A   Overcast
8:36 AM 6.8 °F - 3.2 °F 85% 30.50 in 0.2 mi Calm Calm - N/A   Overcast
8:56 AM 6.8 °F - 3.2 °F 85% 30.49 in 3.0 mi Calm Calm - N/A   Mostly Cloudy
9:16 AM 6.8 °F - 3.2 °F 85% 30.50 in 0.5 mi Calm Calm - N/A   Mostly Cloudy
9:36 AM 6.8 °F - 3.2 °F 85% 30.50 in 0.2 mi Calm Calm - N/A   Overcast
9:56 AM 6.8 °F - 3.2 °F 85% 30.50 in 0.5 mi Calm Calm - N/A   Mostly Cloudy
10:16 AM 10.4 °F - 6.8 °F 85% 30.50 in 0.2 mi Calm Calm - N/A   Unknown
10:36 AM 8.6 °F - 6.8 °F 92% 30.50 in 9.0 mi Calm Calm - N/A   Partly Cloudy
10:56 AM 12.2 °F - 10.4 °F 92% 30.50 in 1.0 mi Calm Calm - N/A   Mostly Cloudy
11:16 AM 12.2 °F - 12.2 °F 100% 30.50 in 10.0 mi Calm Calm - N/A   Mostly Cloudy
11:36 AM 12.2 °F - 10.4 °F 92% 30.50 in 7.0 mi Calm Calm - N/A   Overcast
11:56 AM 14.0 °F - 12.2 °F 93% 30.51 in 0.2 mi Calm Calm - N/A   Overcast
12:16 PM 15.8 °F - 12.2 °F 86% 30.51 in 3.0 mi Calm Calm - N/A   Mostly Cloudy
12:36 PM 17.6 °F 12.3 °F 15.8 °F 93% 30.51 in 10.0 mi West 3.5 mph - N/A   Clear
12:56 PM 17.6 °F 12.3 °F 15.8 °F 93% 30.51 in 10.0 mi WNW 3.5 mph - N/A   Clear
1:16 PM 19.4 °F 14.3 °F 17.6 °F 93% 30.50 in 10.0 mi WNW 3.5 mph - N/A   Clear
1:36 PM 19.4 °F 12.8 °F 17.6 °F 93% 30.50 in 10.0 mi West 4.6 mph - N/A   Clear
1:56 PM 21.2 °F - 17.6 °F 86% 30.50 in 10.0 mi Calm Calm - N/A   Clear
2:16 PM 21.2 °F - 19.4 °F 93% 30.50 in 10.0 mi Calm Calm - N/A   Clear
2:36 PM 24.8 °F - 21.2 °F 86% 30.50 in 10.0 mi Calm Calm - N/A   Clear
2:56 PM 23.0 °F - 21.2 °F 93% 30.50 in 10.0 mi Calm Calm - N/A   Clear
3:16 PM 24.8 °F - 23.0 °F 93% 30.50 in 10.0 mi Calm Calm - N/A   Clear
3:36 PM 24.8 °F - 23.0 °F 93% 30.48 in 10.0 mi Calm Calm - N/A   Clear
3:56 PM 24.8 °F - 21.2 °F 86% 30.48 in 10.0 mi Calm Calm - N/A   Clear
4:16 PM 24.8 °F - 23.0 °F 93% 30.48 in 10.0 mi Calm Calm - N/A   Clear
4:36 PM 26.6 °F 21.2 °F 23.0 °F 86% 30.49 in 10.0 mi NW 4.6 mph - N/A   Clear
4:56 PM 26.6 °F 22.6 °F 23.0 °F 86% 30.48 in 10.0 mi NW 3.5 mph - N/A   Clear
5:16 PM 26.6 °F 21.2 °F 23.0 °F 86% 30.48 in 10.0 mi NNW 4.6 mph - N/A   Clear
5:36 PM 26.6 °F 19.1 °F 24.8 °F 93% 30.48 in 10.0 mi NW 6.9 mph - N/A   Clear
5:56 PM 26.6 °F 17.5 °F 24.8 °F 93% 30.47 in 10.0 mi NW 9.2 mph - N/A   Clear
6:16 PM 26.6 °F 19.1 °F 24.8 °F 93% 30.47 in 10.0 mi NNW 6.9 mph - N/A   Clear
6:36 PM 26.6 °F 22.6 °F 24.8 °F 93% 30.46 in 10.0 mi NNW 3.5 mph - N/A   Clear
6:56 PM 26.6 °F - 23.0 °F 86% 30.46 in 10.0 mi Calm Calm - N/A   Clear
7:36 PM 26.6 °F - 21.2 °F 80% 30.46 in 10.0 mi Calm Calm - N/A   Clear
7:56 PM 24.8 °F - 19.4 °F 80% 30.46 in 10.0 mi Calm Calm - N/A   Clear
8:16 PM 23.0 °F - 19.4 °F 86% 30.46 in 10.0 mi Calm Calm - N/A   Clear
8:36 PM 21.2 °F - 15.8 °F 80% 30.46 in 10.0 mi Calm Calm - N/A   Clear
8:56 PM 21.2 °F - 15.8 °F 80% 30.46 in 10.0 mi Calm Calm - N/A   Clear
9:16 PM 21.2 °F 13.6 °F 17.6 °F 86% 30.47 in 10.0 mi WNW 5.8 mph - N/A   Clear
9:36 PM 19.4 °F 11.5 °F 15.8 °F 86% 30.47 in 10.0 mi WNW 5.8 mph - N/A   Clear
9:56 PM 17.6 °F 7.3 °F 15.8 °F 93% 30.47 in 10.0 mi WNW 8.1 mph - N/A   Clear
10:16 PM 15.8 °F 6.1 °F 10.4 °F 79% 30.47 in 10.0 mi NW 6.9 mph - N/A   Clear
10:36 PM 17.6 °F 12.3 °F 15.8 °F 93% 30.47 in 10.0 mi WNW 3.5 mph - N/A   Clear
10:56 PM 19.4 °F 14.3 °F 15.8 °F 86% 30.46 in 10.0 mi WNW 3.5 mph - N/A   Clear
11:16 PM 14.0 °F 8.2 °F 10.4 °F 86% 30.46 in 8.0 mi WNW 3.5 mph - N/A   Clear
11:36 PM 15.8 °F 8.6 °F 14.0 °F 93% 30.47 in 10.0 mi NW 4.6 mph - N/A   Clear
11:56 PM 14.0 °F 3.9 °F 10.4 °F 86% 30.47 in 10.0 mi WNW 6.9 mph - N/A   Clear